EW5612 Weather Reports


Display with metric or nautical units.
time (UTC)temp
F
wind
direction
speed
MPH
gust
MPH
rain 1hr
in
rain 24hr
in
rain mn
in
humidity
%
barometer
mb
20260505032203 73 135 0.0 0.0 0.00 0.00 0.00 83 1008.8
20260505031704 73 177 0.0 1.0 0.00 0.00 0.00 82 1008.9
20260505031204 73 150 0.0 0.0 0.00 0.00 0.00 82 1009.0
20260505030704 73 137 0.0 0.0 0.00 0.00 0.00 82 1009.0
20260505025704 73 190 0.0 0.0 0.00 0.00 0.00 81 1008.9
20260505025204 73 129 0.0 1.0 0.00 0.00 0.00 81 1008.8
20260505024703 73 158 0.0 1.0 0.00 0.00 0.00 81 1008.6
20260505023703 74 177 0.0 0.0 0.00 0.00 0.00 81 1008.5
20260505023203 74 176 0.0 0.0 0.00 0.00 0.00 81 1008.5
20260505022703 74 179 0.0 0.0 0.00 0.00 0.00 81 1008.5
20260505021703 74 177 0.0 1.0 0.00 0.00 0.00 80 1008.6
20260505021204 74 177 0.0 0.0 0.00 0.00 0.00 80 1008.5
20260505020703 74 177 0.0 0.0 0.00 0.00 0.00 79 1008.5
20260505020204 74 177 0.0 0.0 0.00 0.00 0.00 79 1008.4
20260505015203 75 183 0.0 0.0 0.00 0.00 0.00 78 1008.4
20260505014704 75 183 0.0 0.0 0.00 0.00 0.00 77 1008.4
20260505014204 75 183 0.0 0.0 0.00 0.00 0.00 77 1008.3
20260505013204 76 184 0.0 0.0 0.00 0.00 0.00 76 1008.3
20260505012704 76 189 0.0 1.0 0.00 0.00 0.00 76 1008.1
20260505012204 76 173 0.0 0.0 0.00 0.00 0.00 75 1008.0
20260505011704 76 173 0.0 0.0 0.00 0.00 0.00 75 1007.9
20260505011204 76 172 0.0 0.0 0.00 0.00 0.00 75 1008.0
20260505010204 77 142 0.0 0.0 0.00 0.00 0.00 73 1008.1
20260505005703 77 137 0.0 0.0 0.00 0.00 0.00 73 1008.1
20260505005204 78 200 0.0 0.0 0.00 0.00 0.00 72 1008.1
20260505004703 78 163 0.0 0.0 0.00 0.00 0.00 71 1008.0
20260505004204 78 181 0.0 0.0 0.00 0.00 0.00 71 1007.9
20260505003204 79 158 0.0 0.0 0.00 0.00 0.00 69 1007.8
20260505002704 79 167 0.0 7.0 0.00 0.00 0.00 69 1008.0
20260505001704 79 139 0.0 0.0 0.00 0.00 0.00 68 1008.1
20260505001203 79 149 0.0 0.0 0.00 0.00 0.00 68 1008.2
20260505000704 80 161 0.0 3.0 0.00 0.00 0.00 67 1008.2
20260504234703 81 160 0.0 3.0 0.00 0.00 0.00 65 1008.3
20260504233203 80 171 2.0 7.0 0.00 0.00 0.00 63 1008.4
20260504232704 80 184 0.0 0.0 0.00 0.00 0.00 63 1008.4
20260504232203 80 188 0.0 3.0 0.00 0.00 0.00 63 1008.4
20260504231703 81 151 1.0 9.0 0.00 0.00 0.00 63 1008.5
20260504231203 81 183 1.0 6.0 0.00 0.00 0.00 62 1008.6
20260504230703 81 148 1.0 8.0 0.00 0.00 0.00 61 1008.6
20260504230204 81 157 1.0 7.0 0.00 0.00 0.00 61 1008.6
20260504225704 82 148 0.0 1.0 0.00 0.00 0.00 61 1008.6
20260504225203 82 169 1.0 8.0 0.00 0.00 0.00 62 1008.7
20260504224704 81 119 1.0 7.0 0.00 0.00 0.00 62 1008.8
20260504223703 81 182 0.0 0.0 0.00 0.00 0.00 61 1008.9
20260504222704 82 173 1.0 5.0 0.00 0.00 0.00 62 1009.1
20260504222203 81 194 1.0 6.0 0.00 0.00 0.00 63 1009.1
20260504221703 81 150 1.0 6.0 0.00 0.00 0.00 61 1009.2
20260504221203 82 164 2.0 8.0 0.00 0.00 0.00 60 1009.1
20260504220703 82 160 1.0 8.0 0.00 0.00 0.00 62 1009.1
20260504220203 82 200 1.0 7.0 0.00 0.00 0.00 63 1009.0
20260504215704 81 187 0.0 0.0 0.00 0.00 0.00 63 1009.1
20260504215204 81 187 1.0 5.0 0.00 0.00 0.00 62 1009.1
20260504214703 81 177 0.0 3.0 0.00 0.00 0.00 62 1009.2
20260504214204 81 168 1.0 6.0 0.00 0.00 0.00 61 1009.3
20260504213703 82 190 1.0 8.0 0.00 0.00 0.00 60 1009.4
20260504213203 82 190 2.0 8.0 0.00 0.00 0.00 60 1009.5
20260504212704 83 134 1.0 6.0 0.00 0.00 0.00 59 1009.5
20260504212203 83 176 1.0 5.0 0.00 0.00 0.00 59 1009.5
20260504211703 82 180 3.0 8.0 0.00 0.00 0.00 60 1009.6
20260504210703 83 161 2.0 8.0 0.00 0.00 0.00 58 1009.9
20260504210204 83 194 1.0 6.0 0.00 0.00 0.00 60 1009.9
20260504205704 83 152 1.0 9.0 0.00 0.00 0.00 60 1009.9
20260504205203 83 179 1.0 7.0 0.00 0.00 0.00 60 1010.1
20260504204704 82 175 1.0 6.0 0.00 0.00 0.00 62 1010.2
20260504204204 82 184 1.0 6.0 0.00 0.00 0.00 60 1010.3
20260504203704 82 143 1.0 7.0 0.00 0.00 0.00 59 1010.4
20260504203203 82 164 1.0 7.0 0.00 0.00 0.00 60 1010.5
20260504202704 82 188 2.0 12.0 0.00 0.00 0.00 60 1010.6
20260504202203 82 168 0.0 5.0 0.00 0.00 0.00 61 1010.7
20260504201703 82 166 1.0 7.0 0.00 0.00 0.00 60 1010.6
20260504201204 82 170 0.0 3.0 0.00 0.00 0.00 62 1010.8
20260504200703 82 187 1.0 10.0 0.00 0.00 0.00 62 1010.8
20260504200204 81 157 1.0 5.0 0.00 0.00 0.00 62 1010.9
20260504195204 80 185 0.0 3.0 0.00 0.00 0.00 62 1011.1
20260504194204 81 143 2.0 7.0 0.00 0.00 0.00 62 1011.2
20260504193704 81 129 1.0 8.0 0.00 0.00 0.00 61 1011.4
20260504193203 81 165 0.0 3.0 0.00 0.00 0.00 61 1011.4
20260504192703 81 184 2.0 6.0 0.00 0.00 0.00 62 1011.6
20260504192203 81 105 0.0 0.0 0.00 0.00 0.00 60 1011.6
20260504191703 81 158 1.0 6.0 0.00 0.00 0.00 60 1011.6
20260504190704 81 164 1.0 6.0 0.00 0.00 0.00 61 1011.7
20260504190204 80 181 1.0 5.0 0.00 0.00 0.00 62 1011.5
20260504185704 80 143 2.0 10.0 0.00 0.00 0.00 60 1011.6
20260504184704 80 191 1.0 8.0 0.00 0.00 0.00 62 1011.9
20260504184204 80 181 3.0 7.0 0.00 0.00 0.00 62 1012.2
20260504183704 80 160 0.0 2.0 0.00 0.00 0.00 64 1012.2
20260504183203 80 191 2.0 6.0 0.00 0.00 0.00 63 1012.3
20260504182703 80 167 0.0 5.0 0.00 0.00 0.00 63 1012.3
20260504181703 79 147 1.0 5.0 0.00 0.00 0.00 65 1012.3
20260504180704 78 167 1.0 6.0 0.00 0.00 0.00 65 1012.5
20260504175704 77 180 2.0 8.0 0.00 0.00 0.00 65 1012.6
20260504175204 78 191 0.0 9.0 0.00 0.00 0.00 66 1012.9
20260504174703 78 169 2.0 6.0 0.00 0.00 0.00 65 1013.2
20260504174204 78 181 0.0 6.0 0.00 0.00 0.00 66 1013.1
20260504173703 78 168 2.0 8.0 0.00 0.00 0.00 64 1013.3
20260504173204 78 175 0.0 0.0 0.00 0.00 0.00 65 1013.4
20260504172703 78 186 2.0 9.0 0.00 0.00 0.00 66 1013.4
20260504172204 78 175 3.0 7.0 0.00 0.00 0.00 66 1013.4
20260504171703 77 153 2.0 7.0 0.00 0.00 0.00 67 1013.3
20260504171204 77 181 0.0 6.0 0.00 0.00 0.00 66 1013.4
20260504170703 77 177 1.0 8.0 0.00 0.00 0.00 69 1013.5
20260504170204 76 171 1.0 8.0 0.00 0.00 0.00 68 1013.7
20260504160204 74 181 3.0 9.0 0.00 0.00 0.00 71 1014.0
20260504150703 72 193 0.0 6.0 0.00 0.00 0.00 74 1014.4
20260504141204 67 195 0.0 3.0 0.00 0.00 0.00 78 1014.6
20260504140704 66 187 0.0 2.0 0.00 0.00 0.00 80 1014.6
20260504140204 66 173 0.0 0.0 0.00 0.00 0.00 80 1014.6
20260504130704 61 184 0.0 0.0 0.00 0.00 0.00 89 1014.7
20260504130203 60 184 0.0 0.0 0.00 0.00 0.00 90 1014.8
20260504120204 58 184 0.0 0.0 0.00 0.00 0.00 91 1014.1
20260504110704 58 184 0.0 0.0 0.00 0.00 0.00 89 1014.3
20260504100203 59 184 0.0 0.0 0.00 0.00 0.00 85 1014.6
20260504081703 62 184 0.0 0.0 0.00 0.00 0.00 81 1015.0
20260504081204 62 184 0.0 0.0 0.00 0.00 0.00 80 1014.9
20260504080703 62 184 0.0 0.0 0.00 0.00 0.00 80 1015.0
20260504080204 63 184 0.0 0.0 0.00 0.00 0.00 79 1015.2
20260504070203 64 184 0.0 0.0 0.00 0.00 0.00 76 1016.1
20260504060204 65 188 0.0 0.0 0.00 0.00 0.00 74 1016.9
20260504050703 65 177 0.0 0.0 0.00 0.00 0.00 73 1017.0
20260504050203 65 183 0.0 2.0 0.00 0.00 0.00 73 1017.0
20260504045703 65 187 0.0 0.0 0.00 0.00 0.00 73 1017.1
20260504044203 65 187 0.0 3.0 0.00 0.00 0.00 72 1017.1
20260504043703 65 185 0.0 3.0 0.00 0.00 0.00 72 1017.2
20260504043203 65 173 0.0 2.0 0.00 0.00 0.00 72 1017.3
20260504042703 65 165 0.0 0.0 0.00 0.00 0.00 72 1017.3
20260504042204 66 165 0.0 0.0 0.00 0.00 0.00 73 1017.2
20260504041703 66 165 0.0 0.0 0.00 0.00 0.00 72 1017.2
20260504041203 66 165 0.0 0.0 0.00 0.00 0.00 72 1017.2
20260504040704 66 167 0.0 0.0 0.00 0.00 0.00 72 1017.3
20260504040204 66 167 0.0 0.0 0.00 0.00 0.00 72 1017.3
20260504035703 66 167 0.0 0.0 0.00 0.00 0.00 71 1017.4
20260504034204 66 167 0.0 0.0 0.00 0.00 0.00 70 1017.3
20260504033703 67 167 0.0 3.0 0.00 0.00 0.00 69 1017.3
20260504033204 67 191 0.0 1.0 0.00 0.00 0.00 69 1017.3
20260504032703 67 191 0.0 1.0 0.00 0.00 0.00 68 1017.3